Hourly Data Report for August 03, 2013

All times are specified in Local Standard Time (LST). Add 1 hour to adjust for Daylight Saving Time where and when it is observed.

VICTORIA INTL A
BRITISH COLUMBIA

48°38'50.000" N
123°25'33.000" W
19.50 m
1018621
71799
YYJ

Download Data

Hourly Data (August 2013)
Hourly Data Report for August 3, 2013
Temp Definition
°C
Dew Point Temp Definition
°C
Rel Hum Definition
%
Wind Dir Definition
10's deg

Wind Spd Definition
km/h
Visibility Definition
km
Stn Press Definition
kPa
Hmdx Definition


Wind Chill Definition


Weather Definition


TIME
00:00 13.3 12.4 94 9 4 19.3 101.83     LegendNANA
01:00 13.6 12.3 92 18 2 19.3 101.79     Cloudy
02:00 13.9 12.6 92 35 5 24.1 101.77     LegendNANA
03:00 13.7 12.6 93 12 2 32.2 101.78     LegendNANA
04:00 13.9 12.5 91 25 1 32.2 101.78     Cloudy
05:00 13.6 12.5 93 13 7 24.1 101.79     LegendNANA
06:00 13.9 12.6 92 5 6 24.1 101.83     LegendNANA
07:00 14.2 12.8 91 9 3 32.2 101.85     Cloudy
08:00 14.7 13.1 90 10 2 32.2 101.84     LegendNANA
09:00 14.6 12.8 89 13 5 32.2 101.87     LegendNANA
10:00 15.9 13.2 84 13 5 32.2 101.86     Cloudy
11:00 17.2 13.8 80 10 5 32.2 101.87     LegendNANA
12:00 17.9 14.1 78 9 8 48.3 101.86     LegendNANA
13:00 18.7 13.6 72 9 10 48.3 101.84     Cloudy
14:00 19.5 14.0 70 9 8 48.3 101.78     LegendNANA
15:00 21.2 14.2 64 9 10 48.3 101.72 25   LegendNANA
16:00 21.2 13.7 62 14 10 48.3 101.68     Mainly Clear
17:00 20.2 14.0 67 13 13 48.3 101.64     LegendNANA
18:00 19.1 14.2 73 13 10 48.3 101.62     LegendNANA
19:00 19.1 14.0 72 13 10 48.3 101.59     Mainly Clear
20:00 15.6 12.9 84 10 7 48.3 101.60     LegendNANA
21:00 14.8 12.9 88 8 5 48.3 101.62     LegendNANA
22:00 14.2 12.6 90 19 2 32.2 101.62     Clear
23:00 14.4 12.5 88 7 8 32.2 101.61     LegendNANA

Notes on Data Quality.

Legend

  • E = Estimated
  • M = Missing
  • NA = Not Available
Date modified: